• In Hungary
  • List of Countries
  • For 7 days
  • Water Temperature
  • Satellite Maps
  • Weather Map
  • News
  • Weather Widgets
  • user-avatar
    Login

    Hourly Weather Kosti

    Today, 19 July, Thursday

    Time Temperature Precipitation Wind Pressure Humidity
    00:00 +34°C° 0 mm 5 mps 723 mmHg 44%
    01:00 +34°C° 0 mm 4 mps 723 mmHg 44%
    02:00 +33°C° 0 mm 4 mps 723 mmHg 44%
    03:00 +33°C° 0 mm 4 mps 723 mmHg 45%
    04:00 +33°C° 0 mm 4 mps 723 mmHg 46%
    05:00 +32°C° 0 mm 5 mps 724 mmHg 47%
    06:00 +33°C° 0.1 mm 5 mps 724 mmHg 46%
    07:00 +33°C° 0.1 mm 6 mps 724 mmHg 45%
    08:00 +34°C° 0 mm 6 mps 724 mmHg 43%
    09:00 +35°C° 0 mm 6 mps 724 mmHg 40%
    10:00 +38°C° 0 mm 6 mps 725 mmHg 36%
    11:00 +39°C° 0 mm 6 mps 725 mmHg 33%
    12:00 +40°C° 0 mm 6 mps 724 mmHg 31%
    13:00 +40°C° 0 mm 5 mps 724 mmHg 29%
    14:00 +41°C° 0 mm 5 mps 723 mmHg 27%
    15:00 +41°C° 0.2 mm 4 mps 723 mmHg 29%
    16:00 +40°C° 0.2 mm 4 mps 723 mmHg 30%
    17:00 +39°C° 0.2 mm 3 mps 723 mmHg 31%
    18:00 +38°C° 0.1 mm 3 mps 723 mmHg 32%
    19:00 +38°C° 0.1 mm 3 mps 723 mmHg 33%
    20:00 +38°C° 0.1 mm 2 mps 723 mmHg 34%
    21:00 +37°C° 0.2 mm 2 mps 723 mmHg 37%
    22:00 +37°C° 0.2 mm 2 mps 724 mmHg 39%
    23:00 +36°C° 0.2 mm 3 mps 724 mmHg 41%

    Tomorrow, 20 July, Friday

    Time Temperature Precipitation Wind Pressure Humidity
    00:00 +35°C° 0.8 mm 3 mps 724 mmHg 44%
    01:00 +34°C° 0.8 mm 4 mps 723 mmHg 47%
    02:00 +34°C° 0.8 mm 5 mps 723 mmHg 50%
    03:00 +33°C° 0.3 mm 5 mps 723 mmHg 50%
    04:00 +33°C° 0.3 mm 5 mps 723 mmHg 50%
    05:00 +33°C° 0.3 mm 5 mps 723 mmHg 50%
    06:00 +34°C° 0.3 mm 5 mps 724 mmHg 48%
    07:00 +34°C° 0.3 mm 6 mps 724 mmHg 46%
    08:00 +35°C° 0.3 mm 6 mps 725 mmHg 44%
    09:00 +36°C° 0 mm 6 mps 725 mmHg 41%
    10:00 +38°C° 0 mm 6 mps 725 mmHg 39%
    11:00 +39°C° 0 mm 6 mps 725 mmHg 36%
    12:00 +39°C° 0 mm 5 mps 724 mmHg 35%
    13:00 +39°C° 0 mm 5 mps 724 mmHg 34%
    14:00 +40°C° 0 mm 5 mps 723 mmHg 32%
    15:00 +40°C° 0 mm 4 mps 723 mmHg 32%
    16:00 +40°C° 0 mm 4 mps 722 mmHg 32%
    17:00 +40°C° 0 mm 4 mps 722 mmHg 32%
    18:00 +38°C° 0 mm 3 mps 722 mmHg 34%
    19:00 +38°C° 0 mm 3 mps 723 mmHg 35%
    20:00 +38°C° 0 mm 3 mps 723 mmHg 37%
    21:00 +37°C° 0 mm 3 mps 723 mmHg 39%
    22:00 +37°C° 0 mm 3 mps 724 mmHg 41%
    23:00 +36°C° 0 mm 3 mps 724 mmHg 43%

    Day after tomorrow, 21 July, Saturday

    Time Temperature Precipitation Wind Pressure Humidity
    00:00 +35°C° 0 mm 4 mps 724 mmHg 46%
    01:00 +34°C° 0 mm 5 mps 723 mmHg 49%
    02:00 +34°C° 0 mm 6 mps 723 mmHg 52%
    03:00 +33°C° 0.5 mm 6 mps 723 mmHg 54%
    04:00 +32°C° 0.5 mm 6 mps 723 mmHg 56%
    05:00 +32°C° 0.5 mm 6 mps 723 mmHg 58%
    06:00 +32°C° 0.3 mm 6 mps 724 mmHg 55%
    07:00 +33°C° 0.3 mm 5 mps 724 mmHg 51%
    08:00 +34°C° 0.3 mm 5 mps 725 mmHg 48%
    09:00 +35°C° 0 mm 5 mps 725 mmHg 44%
    10:00 +36°C° 0 mm 5 mps 725 mmHg 40%
    11:00 +39°C° 0 mm 5 mps 725 mmHg 36%
    12:00 +40°C° 0 mm 5 mps 724 mmHg 34%
    13:00 +40°C° 0 mm 5 mps 724 mmHg 32%
    14:00 +41°C° 0 mm 4 mps 723 mmHg 31%
    15:00 +41°C° 0 mm 4 mps 723 mmHg 31%
    16:00 +41°C° 0 mm 4 mps 722 mmHg 31%
    17:00 +40°C° 0 mm 4 mps 722 mmHg 31%
    18:00 +40°C° 0 mm 4 mps 723 mmHg 32%
    19:00 +40°C° 0 mm 4 mps 723 mmHg 33%
    20:00 +40°C° 0 mm 4 mps 723 mmHg 34%
    21:00 +38°C° 0.1 mm 4 mps 724 mmHg 36%
    22:00 +37°C° 0.1 mm 4 mps 724 mmHg 38%
    23:00 +37°C° 0.1 mm 5 mps 724 mmHg 40%

    22 July, Sunday

    Time Temperature Precipitation Wind Pressure Humidity
    00:00 +36°C° 0.9 mm 5 mps 724 mmHg 44%
    01:00 +35°C° 0.9 mm 6 mps 724 mmHg 48%
    02:00 +33°C° 0.9 mm 6 mps 723 mmHg 52%
    03:00 +33°C° 0.9 mm 6 mps 724 mmHg 54%
    04:00 +32°C° 0.9 mm 7 mps 724 mmHg 56%
    05:00 +32°C° 0.9 mm 7 mps 724 mmHg 58%
    06:00 +32°C° 0.2 mm 8 mps 724 mmHg 56%
    07:00 +32°C° 0.2 mm 8 mps 725 mmHg 55%
    08:00 +33°C° 0.2 mm 9 mps 725 mmHg 54%
    09:00 +33°C° 0 mm 9 mps 725 mmHg 52%
    10:00 +34°C° 0 mm 9 mps 725 mmHg 50%
    11:00 +34°C° 0 mm 9 mps 725 mmHg 49%
    12:00 +34°C° 0.1 mm 8 mps 725 mmHg 48%
    13:00 +34°C° 0.1 mm 8 mps 724 mmHg 48%
    14:00 +34°C° 0.1 mm 8 mps 724 mmHg 47%
    15:00 +34°C° 0.2 mm 8 mps 723 mmHg 47%
    16:00 +34°C° 0.2 mm 8 mps 723 mmHg 47%
    17:00 +34°C° 0.2 mm 8 mps 723 mmHg 47%
    18:00 +34°C° 0.1 mm 7 mps 723 mmHg 49%
    19:00 +33°C° 0.1 mm 7 mps 724 mmHg 50%
    20:00 +33°C° 0.1 mm 7 mps 724 mmHg 52%
    21:00 +32°C° 0 mm 6 mps 725 mmHg 54%
    22:00 +32°C° 0 mm 5 mps 725 mmHg 56%
    23:00 +32°C° 0 mm 5 mps 726 mmHg 57%

    23 July, Monday

    Time Temperature Precipitation Wind Pressure Humidity
    00:00 +32°C° 0 mm 5 mps 725 mmHg 58%
    01:00 +30°C° 0 mm 5 mps 725 mmHg 58%
    02:00 +30°C° 0 mm 4 mps 724 mmHg 59%
    03:00 +30°C° 0.1 mm 5 mps 724 mmHg 59%
    04:00 +29°C° 0.1 mm 5 mps 724 mmHg 60%
    05:00 +29°C° 0.1 mm 5 mps 724 mmHg 60%
    06:00 +30°C° 0.1 mm 6 mps 725 mmHg 58%
    07:00 +30°C° 0.1 mm 6 mps 725 mmHg 55%
    08:00 +30°C° 0.1 mm 6 mps 725 mmHg 53%
    09:00 +33°C° 0 mm 7 mps 725 mmHg 49%
    10:00 +34°C° 0 mm 7 mps 726 mmHg 44%
    11:00 +37°C° 0 mm 8 mps 726 mmHg 40%
    12:00 +37°C° 0 mm 8 mps 725 mmHg 40%
    13:00 +35°C° 0 mm 7 mps 724 mmHg 40%
    14:00 +35°C° 0 mm 7 mps 724 mmHg 40%
    15:00 +35°C° 0 mm 6 mps 724 mmHg 41%
    16:00 +35°C° 0 mm 6 mps 723 mmHg 42%
    17:00 +35°C° 0 mm 5 mps 723 mmHg 43%
    18:00 +34°C° 0 mm 5 mps 724 mmHg 44%
    19:00 +34°C° 0 mm 5 mps 724 mmHg 45%
    20:00 +34°C° 0 mm 4 mps 725 mmHg 46%
    21:00 +33°C° 0 mm 4 mps 725 mmHg 48%
    22:00 +32°C° 0 mm 5 mps 725 mmHg 49%
    23:00 +32°C° 0 mm 5 mps 725 mmHg 51%

    24 July, Tuesday

    Time Temperature Precipitation Wind Pressure Humidity
    00:00 +30°C° 0 mm 5 mps 725 mmHg 52%
    01:00 +30°C° 0 mm 5 mps 724 mmHg 53%
    02:00 +30°C° 0 mm 5 mps 724 mmHg 53%
    03:00 +29°C° 0 mm 5 mps 724 mmHg 54%
    04:00 +29°C° 0 mm 5 mps 724 mmHg 54%
    05:00 +29°C° 0 mm 5 mps 724 mmHg 54%
    06:00 +30°C° 0 mm 6 mps 725 mmHg 53%
    07:00 +30°C° 0 mm 6 mps 725 mmHg 51%
    08:00 +32°C° 0 mm 7 mps 726 mmHg 49%
    09:00 +33°C° 0 mm 7 mps 726 mmHg 46%
    10:00 +34°C° 0 mm 7 mps 726 mmHg 43%
    11:00 +35°C° 0 mm 7 mps 726 mmHg 40%
    12:00 +35°C° 0 mm 7 mps 725 mmHg 40%
    13:00 +35°C° 0 mm 7 mps 725 mmHg 40%
    14:00 +35°C° 0 mm 7 mps 724 mmHg 40%
    15:00 +35°C° 0 mm 6 mps 724 mmHg 40%
    16:00 +35°C° 0 mm 6 mps 724 mmHg 40%
    17:00 +35°C° 0 mm 6 mps 724 mmHg 40%
    18:00 +35°C° 0 mm 6 mps 724 mmHg 42%
    19:00 +34°C° 0 mm 6 mps 725 mmHg 45%
    20:00 +33°C° 0 mm 6 mps 725 mmHg 47%
    21:00 +33°C° 0 mm 6 mps 725 mmHg 48%
    22:00 +32°C° 0 mm 5 mps 725 mmHg 48%
    23:00 +32°C° 0 mm 5 mps 725 mmHg 49%
    Show more